Regional Weather Roundup
Issued by NWS

Home | Current Version | Previous Version | Text Only | Print | Product List | Glossary Off
Versions: 1 2 3 4 5 6 7 8 9 10 11 12 13 14 15 16 17 18 19 20 21 22 23 24 25 26 27 28 29 30 31 32 33 34 35 36 37 38 39 40 41 42 43 44 45 46 47 48 49 50

000
ASUS43 KMKX 211220
RWRWI

WISCONSIN REGIONAL WEATHER ROUNDUP
NATIONAL WEATHER SERVICE MILWAUKEE/SULLIVAN WI
700 AM CDT SAT APR 21 2018

NOTE: "FAIR" INDICATES FEW OR NO CLOUDS BELOW 12,000 FEET WITH NO
SIGNIFICANT WEATHER AND/OR OBSTRUCTIONS TO VISIBILITY.

WIZ001-002-006>008-014>016-023>028-211300-
NORTHWEST WISCONSIN

CITY           SKY/WX    TMP DP  RH WIND       PRES   REMARKS
SUPERIOR ARPT  FAIR      33  21  62 SW6       30.43R WCI  28
6HR MIN TEMP:  28; 6HR MAX TEMP:  38;

ASHLAND        FAIR      31  20  63 SW6       30.43R WCI  25
6HR MIN TEMP:  24; 6HR MAX TEMP:  40;

HAYWARD        FAIR      24  20  84 CALM      30.43R
6HR MIN TEMP:  23; 6HR MAX TEMP:  28;

SIREN          FAIR      25  21  82 CALM      30.44R
6HR MIN TEMP:  24; 6HR MAX TEMP:  29;

CUMBERLAND     FAIR      27  21  80 CALM      30.42S
RICE LAKE      FAIR      29  26  89 CALM      30.45R
6HR MIN TEMP:  27; 6HR MAX TEMP:  30;

CHETEK         FAIR      28  25  86 CALM      30.44R
6HR MIN TEMP:  27; 6HR MAX TEMP:  29;

LADYSMITH      FAIR      29  24  79 CALM      30.45R
6HR MIN TEMP:  27; 6HR MAX TEMP:  32;

EAU CLAIRE     FAIR      32  26  78 CALM      30.43R
6HR MIN TEMP:  28; 6HR MAX TEMP:  32;

MENOMONIE      FAIR      33  29  84 CALM      30.44R
6HR MIN TEMP:  32; 6HR MAX TEMP:  36;

NEW RICHMOND   FAIR      31  27  86 CALM      30.44R
6HR MIN TEMP:  30; 6HR MAX TEMP:  32;

OSCEOLA        FAIR      30  27  86 CALM      30.47R
6HR MIN TEMP:  30; 6HR MAX TEMP:  32;

$$

WIZ003>005-009-010-017-018-211300-
NORTH CENTRAL WISCONSIN

CITY           SKY/WX    TMP DP  RH WIND       PRES   REMARKS
MANITOWISH WTR FAIR      23  19  87 CALM      30.41R
6HR MIN TEMP:  21; 6HR MAX TEMP:  29;

ARBOR VITAE    FAIR      29  21  71 CALM      30.41S
6HR MIN TEMP:  26; 6HR MAX TEMP:  32;

WOODRUFF       FAIR      29  21  71 CALM      30.41S
6HR MIN TEMP:  26; 6HR MAX TEMP:  32;

RHINELANDER    FAIR      29  20  69 CALM      30.42R
6HR MIN TEMP:  27; 6HR MAX TEMP:  31;

EAGLE RIVER    FAIR      26  20  78 CALM      30.41R
6HR MIN TEMP:  24; 6HR MAX TEMP:  30;

LAND O LAKES   FAIR      25  19  78 CALM      30.43R
6HR MIN TEMP:  20; 6HR MAX TEMP:  27;

PHILLIPS       FAIR      26  23  87 CALM      30.42R
6HR MIN TEMP:  25; 6HR MAX TEMP:  28;

TOMAHAWK       FAIR      25  19  80 CALM      30.43R
6HR MIN TEMP:  22; 6HR MAX TEMP:  27;

MEDFORD        FAIR      28  24  84 CALM      30.41S
6HR MIN TEMP:  25; 6HR MAX TEMP:  30;

MERRILL        FAIR      28  24  84 CALM      30.44R
6HR MIN TEMP:  24; 6HR MAX TEMP:  28;

$$

WIZ029-030-035-036-043>047-211300-
CENTRAL WISCONSIN

CITY           SKY/WX    TMP DP  RH WIND       PRES   REMARKS
WAUSAU         FAIR      30  22  72 CALM      30.41R
6HR MIN TEMP:  27; 6HR MAX TEMP:  31;

MOSINEE        MOCLDY    34  21  60 CALM      30.43R
MARSHFIELD     FAIR      34  25  69 CALM      30.40S
6HR MIN TEMP:  31; 6HR MAX TEMP:  36;

STEVENS POINT  FAIR      29  21  73 CALM      30.44S
6HR MIN TEMP:  24; 6HR MAX TEMP:  29;

WAUPACA        FAIR      33  26  73 CALM      30.45R
6HR MIN TEMP:  29; 6HR MAX TEMP:  33;

WAUTOMA        FAIR      30  26  85 CALM      30.44S
6HR MIN TEMP:  26; 6HR MAX TEMP:  30;

WISC RAPIDS    FAIR      32  21  64 CALM      30.44R
6HR MIN TEMP:  27; 6HR MAX TEMP:  32;

CAMP DOUGLAS   FAIR      30  27  88 CALM      30.42S
6HR MIN TEMP:  24; 6HR MAX TEMP:  30;

$$

WIZ011>013-019>022-031-037>040-048>050-211300-
NORTHEAST WISCONSIN

CITY           SKY/WX    TMP DP  RH WIND       PRES   REMARKS
ANTIGO         FAIR      30  25  81 CALM      30.42R
6HR MIN TEMP:  27; 6HR MAX TEMP:  30;

SHAWANO        FAIR      33  22  64 CALM      30.43S
6HR MIN TEMP:  28; 6HR MAX TEMP:  33;

OCONTO         FAIR      30  22  73 CALM      30.43R
6HR MIN TEMP:  24; 6HR MAX TEMP:  30;

STURGEON BAY   FAIR      36  21  54 S5        30.44S WCI  32
6HR MIN TEMP:  34; 6HR MAX TEMP:  40;

GREEN BAY      FAIR      34  24  67 S6        30.45R WCI  29
6HR MIN TEMP:  28; 6HR MAX TEMP:  34;

MANITOWOC      FAIR      31  26  82 CALM      30.46R
6HR MIN TEMP:  29; 6HR MAX TEMP:  31;

APPLETON       MOCLDY    37  19  48 CALM      30.42R
CLINTONVILLE   FAIR      31  23  71 CALM      30.44S
6HR MIN TEMP:  27; 6HR MAX TEMP:  31;

OSHKOSH        FAIR      33  24  69 CALM      30.44R
6HR MIN TEMP:  32; 6HR MAX TEMP:  39;

$$

WIZ032>034-041-042-053>061-211300-
SOUTHWEST WISCONSIN

CITY           SKY/WX    TMP DP  RH WIND       PRES   REMARKS
LA CROSSE      CLOUDY    37  30  75 SE3       30.43R
6HR MIN TEMP:  35; 6HR MAX TEMP:  39;

SPARTA         FAIR      30  26  85 CALM      30.44R
6HR MIN TEMP:  26; 6HR MAX TEMP:  30;

VIROQUA        CLOUDY    40  24  51 CALM      30.43R
6HR MIN TEMP:  37; 6HR MAX TEMP:  41;

BOSCOBEL       CLOUDY    38  32  79 CALM      30.45R
6HR MIN TEMP:  32; 6HR MAX TEMP:  38;

PRAIRIE DU CHI CLOUDY    39  32  76 CALM      30.44R
6HR MIN TEMP:  35; 6HR MAX TEMP:  39;

PLATTEVILLE    MOCLDY    42  29  59 CALM      30.43R
6HR MIN TEMP:  40; 6HR MAX TEMP:  43;

$$

WIZ056-057-062-063-064-067-068-211300-
SOUTH CENTRAL WISCONSIN

CITY           SKY/WX    TMP DP  RH WIND       PRES   REMARKS
REEDSBURG      FAIR      31  29  90 CALM      30.44R
6HR MIN TEMP:  29; 6HR MAX TEMP:  32;

BARABOO/DELLS  FAIR      32  23  68 CALM      30.43R
6HR MIN TEMP:  29; 6HR MAX TEMP:  32;

LONE ROCK      CLOUDY    35  33  92 CALM      30.44R
6HR MIN TEMP:  31; 6HR MAX TEMP:  35;

MINERAL POINT  FAIR      43  27  52 CALM      30.44R
MADISON        CLOUDY    34  27  75 CALM      30.43S
6HR MIN TEMP:  30; 6HR MAX TEMP:  34;

MIDDLETON      CLOUDY    35  33  90 CALM      30.44R
6HR MIN TEMP:  32; 6HR MAX TEMP:  35;

WATERTOWN      FAIR      31  27  85 CALM      30.44R
6HR MIN TEMP:  27; 6HR MAX TEMP:  31;

MONROE         MOCLDY    41  19  42 SE5       30.42S
JANESVILLE     CLOUDY    41  27  56 CALM      30.43R
$$

WIZ051-052-058>065-066-070>072-211300-
SOUTHEAST WISCONSIN

CITY           SKY/WX    TMP DP  RH WIND       PRES   REMARKS
MILWAUKEE      CLOUDY    36  26  67 CALM      30.46R
6HR MIN TEMP:  31; 6HR MAX TEMP:  38;

WAUKESHA       MOCLDY    32  25  74 NE3       30.46R
MILWAUKEE/TIMM FAIR      32  27  80 CALM      30.47R
RACINE         FAIR      34  28  79 CALM      30.47R
6HR MIN TEMP:  30; 6HR MAX TEMP:  35;

BURLINGTON     FAIR      32  28  83 CALM      30.44S
6HR MIN TEMP:  28; 6HR MAX TEMP:  32;

KENOSHA        FAIR      36  27  69 CALM      30.45R
6HR MIN TEMP:  30; 6HR MAX TEMP:  36;

FOND DU LAC    FAIR      33  26  75 CALM      30.45R
6HR MIN TEMP:  27; 6HR MAX TEMP:  33;

SHEBOYGAN      FAIR      33  29  85 CALM      30.45R
6HR MIN TEMP:  28; 6HR MAX TEMP:  33;

WEST BEND      FAIR      32  28  86 CALM      30.45S
JUNEAU         FAIR      35  24  66 CALM      30.45R
6HR MIN TEMP:  32; 6HR MAX TEMP:  38;

$$

LSZ147-162-211300-
LAKE SUPERIOR

STATION/POSITION TIME  TEMP    WIND        PRES    WAVE
                       AIR SEA DIR/SP/G            HT/PER
                 (UTC) (F)     (DEG/KT/KT) (MB)    (FT/S)
DEVILS ISLAND    1200   41     230/ 11/ 12 1030.4R
SAXON HARBOR     1140   28     190/  3/  4 1029.1S
$$

LMZ867-665-643>646-211300-
LAKE MICHIGAN

STATION/POSITION TIME  TEMP    WIND        PRES    W


USA.gov is the U.S. government's official web portal to all federal, state and local government web resources and services.